Flag for Slovenia Weather past 2 weeks in Kranj, Slovenia

Now
63 °F

Partly sunny.


Feels Like: 63 °F
Forecast: 58 / 67 °F
Wind: 1 mph from North

Location: Ljubljana Airport / Brnik

Current Time: Sep 3, 2015 at 9:41:15 AM

Latest Report: Sep 3, 2015 at 9:00 AM


Visibility: N/A

Pressure: 29.98 "Hg

Humidity: 94%

Dew point: 61 °F

Location of KranjLocation

Historic Weather in Kranj — Graph

°F

Kranj temperature yesterday

Maximum temperature yesterday: 77 °F (at 10:30 AM)
Minimum temperature yesterday: 57 °F (at 5:30 AM)
Average temperature yesterday: 67 °F

Past Weeks' High & Low Weather Summary

 TemperatureHumidityPressure
High88 °F (Aug 29, 3:00 PM)100% (Aug 19, 8:00 AM)30.27 "Hg (Aug 19, 8:00 AM)
Low48 °F (Aug 23, 5:00 AM)31% (Sep 1, 3:00 PM)29.89 "Hg (Sep 1, 2:00 PM)
Average67 °F79%30.08 "Hg
* Reported Aug 19 8:00 AM — Sep 3 8:30 AM, Kranj, Weather by CustomWeather, © 2015

Note: Actual official high and low records may vary slightly from our data, if they occured in-between our weather recording intervals... More about our weather records

Advertising

Kranj weather history for previous 24 hours

 ConditionsComfort  
Time TempWeatherWind HumidityBarometerVisibility
8:30 AM
Thu, Sep 3
63 °FBroken clouds.1 mph94%29.98 "HgN/A
8:00 AM61 °FPartly sunny.2 mph100%29.98 "HgN/A
7:30 AM63 °FSprinkles. Broken clouds.5 mph88%29.98 "HgN/A
7:00 AM63 °FPassing clouds.3 mph83%29.98 "HgN/A
6:30 AM63 °FPassing clouds.3 mph88%29.98 "HgN/A
6:00 AM63 °FPassing clouds.2 mph88%29.98 "HgN/A
5:30 AM63 °FPassing clouds.5 mph88%29.98 "HgN/A
5:00 AM63 °FPassing clouds.2 mph94%29.98 "HgN/A
4:30 AM63 °FPassing clouds.1 mph94%29.98 "HgN/A
4:00 AM63 °FPassing clouds.1 mph94%29.95 "HgN/A
3:30 AM63 °FPassing clouds.2 mph94%29.98 "HgN/A
3:00 AM63 °FPassing clouds.2 mph94%29.98 "HgN/A
2:30 AM63 °FPassing clouds.No wind94%29.95 "HgN/A
2:00 AM63 °FPartly cloudy.No wind100%29.98 "HgN/A
1:30 AM64 °FPassing clouds.No wind94%29.98 "HgN/A
1:00 AM64 °FPassing clouds.No wind94%29.98 "HgN/A
11:30 PM
Wed, Sep 2
64 °FPassing clouds.1 mph94%29.95 "HgN/A
11:00 PM64 °FPassing clouds.1 mph94%29.95 "HgN/A
10:30 PM64 °FPassing clouds.2 mph94%29.95 "HgN/A
10:00 PM66 °FPassing clouds.1 mph94%29.95 "HgN/A
9:30 PM66 °FPassing clouds.No wind94%29.95 "HgN/A
9:00 PM66 °FPassing clouds.2 mph94%29.95 "HgN/A
8:30 PM66 °FScattered clouds.5 mph94%29.95 "HgN/A
8:00 PM68 °FPassing clouds.3 mph83%29.95 "HgN/A
7:30 PM70 °FScattered clouds.2 mph83%29.92 "HgN/A
7:00 PM70 °FScattered clouds.6 mph83%29.92 "HgN/A
6:30 PM72 °FBroken clouds.6 mph73%29.92 "HgN/A
5:30 PM75 °FScattered clouds.1 mph61%29.92 "HgN/A
5:00 PM75 °FScattered clouds.3 mph61%29.92 "HgN/A
4:30 PM73 °FBroken clouds.6 mph65%29.95 "HgN/A
4:00 PM72 °FBroken clouds.6 mph78%29.95 "HgN/A
3:30 PM70 °FBroken clouds.2 mph83%29.95 "HgN/A
3:00 PM70 °FMore clouds than sun.5 mph83%29.95 "HgN/A
2:30 PM70 °FSprinkles. Partly sunny.3 mph83%29.95 "HgN/A
2:00 PM72 °FSprinkles. Partly sunny.6 mph78%29.95 "HgN/A
1:30 PM72 °FSprinkles. Partly sunny.8 mph78%29.98 "HgN/A
1:00 PM73 °FSprinkles. Partly sunny.10 mph69%29.95 "HgN/A
12:30 PM75 °FPartly sunny.8 mph61%29.95 "HgN/A
12:00 PM77 °FPartly sunny.8 mph57%29.95 "HgN/A
11:30 AM75 °FPartly sunny.5 mph61%29.95 "HgN/A
11:00 AM75 °FPartly sunny.5 mph61%29.95 "HgN/A
10:30 AM77 °FScattered clouds.3 mph57%29.95 "HgN/A
10:00 AM75 °FScattered clouds.1 mph65%29.95 "HgN/A
9:30 AM72 °FScattered clouds.No wind69%29.95 "HgN/A
9:00 AM68 °FScattered clouds.No wind78%29.95 "HgN/A
Weather by CustomWeather, © 2015

See weather overviewHow to use our weather pages